Preview of NWS' New Version of Forecast
This preview is not operational and should not be used for support decisions.

Regional Weather Roundup (RWR)

Issued by National Weather Service (NWS)

                            
000
ASUS44 KJAN 220310
RWRMS 

MISSISSIPPI HOURLY WEATHER ROUNDUP
NATIONAL WEATHER SERVICE JACKSON MS
1000 PM CDT SUN JUL 21 2019

NOTE: "FAIR: INDICATES FEW OR NO CLOUDS BELOW 12,000 FEET WITH NO
SIGNIFICANT WEATHER AND/OR OBSTRUCTIONS TO VISIBILITY.

MSZ001>002-007>008-010>013-018>021-025>028-034>036-220400-
NORTHWEST MISSISSIPPI
  
CITY           SKY/WX    TMP DP  RH WIND       PRES   REMARKS
BATESVILLE       N/A     77  75  94 CALM      29.95S                  
CLARKSDALE       N/A     81  81 100 CALM      29.95R HX  91           
CLEVELAND      FAIR      76  76 100 SW7       29.96R                  
GREENWOOD      FAIR      75  72  90 SW3       29.97R                  
GREENVILLE     FAIR      77  73  87 SW8       29.95F                  
OLIVE BRANCH     N/A     77 N/A N/A S3        29.96R                  
OXFORD         FAIR      79  75  89 CALM      29.99R                  
TUNICA           N/A     79  77  94 S6        29.96R                  
WINONA         FAIR      76  74  93 CALM      29.99R                  
$$

MSZ003>006-009-014>017-022>024-029>033-037>039-220400-
NORTHEAST MISSISSIPPI
  
CITY           SKY/WX    TMP DP  RH WIND       PRES   REMARKS
ABERDEEN       FAIR      75  66  73 S5        29.99S                  
COLUMBUS AFB   FAIR      78  75  91 SW6       29.98R                  
CORINTH        FAIR      77  75  94 S5        29.97S                  
GOLDN TRIANGLE FAIR      77  75  93 CALM      29.99S                  
STARKVILLE       N/A     75  72  88 CALM      30.00R                  
TUPELO         FAIR      79  74  84 CALM      29.98R                  
$$

MSZ040-058-220400-
CENTRAL MISSISSIPPI
  
CITY           SKY/WX    TMP DP  RH WIND       PRES   REMARKS
JACKSON INTL   MOCLDY    75  72  90 CALM      29.99S                  
JACKSON HAWKNS FAIR      75  73  93 NW3       30.00R                  
MADISON        FAIR      73  73 100 CALM      29.99R                  
MERIDIAN KEY   FAIR      76  73  91 CALM      30.00R                  
MERIDIAN NAS   FAIR      75  72  90 SE3       30.00R                  
RAYMOND        FAIR      72  72 100 CALM      29.99S                  
VICKSBURG VKS  CLEAR     73  73 100 SE6       29.97F                  
$$

MSZ059>079-220400-
SOUTH MISSISSIPPI
  
CITY           SKY/WX    TMP DP  RH WIND       PRES   REMARKS
BROOKHAVEN     FAIR      75  73  94 CALM      30.00F                  
HATTIESBURG    FAIR      75  73  93 SE3       30.00F                  
LAUREL         MOCLDY    74  73  98 SE3       30.00S                  
MCCOMB         FAIR      74  73  97 CALM      29.99S                  
NATCHEZ        FAIR      74  73  97 CALM      29.98F                  
PINE BELT      CLOUDY    74  74 100 SE3       30.01S                  
$$

MSZ080>082-220400-
COASTAL MISSISSIPPI
  
CITY           SKY/WX    TMP DP  RH WIND       PRES   REMARKS
BILOXI         FAIR      77  73  87 CALM      29.99F                  
PASCAGOULA     FAIR      74  71  91 CALM      30.00F                  
GULFPORT       FAIR      76  74  93 CALM      29.99S                  
$$

LAZ007>009-015>016-023>026-220400-
NORTHEAST LOUISIANA
  
CITY           SKY/WX    TMP DP  RH WIND       PRES   REMARKS
BASTROP        FAIR      74  74  98 CALM      29.97F                  
TALLULAH/VBURG FAIR      75  74  96 CALM      29.97F                  
VIDALIA        FAIR      75  73  93 CALM      29.97S                  
$$